Regional Weather Roundup
Issued by NWS

Home | Current Version | Previous Version | Text Only | Print | Product List | Glossary On
Versions: 1 2 3 4 5 6 7 8 9 10 11 12 13 14 15 16 17 18 19 20 21 22 23 24 25 26 27 28 29 30 31 32 33 34 35 36 37 38 39 40 41 42 43 44 45 46 47 48 49 50
000
ASUS45 KBOU 260507
RWRCO

WEATHER ROUNDUP FOR COLORADO
NATIONAL WEATHER SERVICE DENVER/BOULDER CO
1000 PM MST SUN JAN 25 2015

NOTE: "FAIR" INDICATES FEW OR NO CLOUDS BELOW 12000 FEET WITH NO
SIGNIFICANT WEATHER AND/OR OBSTRUCTIONS TO VISIBILITY.

COZ001>005-013-030-031-260600-
...NORTHWEST COLORADO...

CITY           SKY/WX    TMP DP  RH WIND       PRES   REMARKS
CRAIG          PTCLDY    20  17  88 CALM      30.42R
HAYDEN         PTCLDY    28  21  74 E12       30.42R WCI  18
MEEKER         PTCLDY    20  16  84 NE5       30.41R WCI  13
MOUNT WERNER   NOT AVBL
STEAMBOAT SPGS PTCLDY    25  23  93 CALM      30.43R
WALDEN         CLEAR     23  19  86 E7        30.41R WCI  15
$$

COZ006>008-011-260600-
...WEST CENTRAL VALLEYS...

CITY           SKY/WX    TMP DP  RH WIND       PRES   REMARKS
GRAND JUNCTION CLEAR     30  23  75 SE10      30.35F WCI  21
MONTROSE       PTCLDY    27  20  75 S6        30.39F WCI  20
EAGLE          CLEAR     27  25  93 CALM      30.45R
RIFLE          MOCLDY    29  24  82 SE3       30.40S
DELTA          PTCLDY    32  22  65 NE3       30.38F
NUCLA          PTCLDY    37  23  56 CALM      30.38S
$$

COZ017>023-064>068-260600-
...SOUTHWEST COLORADO...

CITY           SKY/WX    TMP DP  RH WIND       PRES   REMARKS
DURANGO        PTCLDY    28  23  81 CALM      30.32R
CORTEZ         CLEAR     37  23  56 W5        30.30R
PAGOSA SPRINGS PTCLDY    26  18  74 CALM      30.34S
TELLURIDE      PTCLDY    33  20  59 S6        30.40S WCI  27
WOLF CREEK PAS NOT AVBL
$$

COZ009-010-012-014-032>034-037-058>063-260600-
...CENTRAL COLORADO...

CITY           SKY/WX    TMP DP  RH WIND       PRES   REMARKS
ASPEN          PTCLDY    28  20  71 SW5       30.43R WCI  23
BUENA VISTA    PTCLDY    40  22  47 NW16G28   30.34R
COPPER MTN     PTCLDY    28  19  69 W16       30.50R WCI  17
BERTHOUD PASS  FAIR      19  12  73 N18G25    30.48R WCI   4
COTTONWOOD PAS PTCLDY    41  14  33 N12G18    30.39S
GUNNISON       PTCLDY     7  -8  51 CALM      30.47R
KREMMLING      PTCLDY    21  19  93 CALM      30.46R
LEADVILLE      PTCLDY    24  16  71 N5        30.43R WCI  18
MONARCH PASS   PTCLDY    28  14  54 W7        30.57S WCI  21
SALIDA         PTCLDY    35  21  57 W6        30.42R WCI  29
SUNLIGHT       MOCLDY    32  23  69 NE5         N/A  WCI  27
WILKERSON PASS PTCLDY    32  12  43 N8        30.44R WCI  25
$$

COZ069>075-260600-
...SAN LUIS VALLEY/SANGRE DE CRISTO MOUNTAINS...

CITY           SKY/WX    TMP DP  RH WIND       PRES   REMARKS
ALAMOSA        PTCLDY    18  13  80 CALM      30.35R
LA VETA PASS   NOT AVBL
SAGUACHE       PTCLDY    32  23  69 N12       30.37R WCI  23
$$

COZ035-036-038>040-260600-
...NORTHERN COLORADO FRONT RANGE...

CITY           SKY/WX    TMP DP  RH WIND       PRES   REMARKS
DENVER INTL AP PTCLDY    43  25  49 SW7       30.20R
DMNS CITY PARK   N/A     42  24  47 S3        30.20R
AURORA         CLEAR     44  23  44 SW7       30.21R
FRONT RANGE AP NOT AVBL
ERIE MUNI ARPT CLEAR     32  26  77 CALM      30.19R
BOULDER MUN AP CLEAR     45  25  45 S3        30.20R
CENTENNIAL     PTCLDY    44  23  43 CALM      30.22R
BROOMFIELD     CLEAR     46  23  39 W10       30.20R
FORT COLLINS   CLEAR     37  27  65 N5        30.21R
LONGMONT       CLEAR     36  25  64 W6        30.21R
$$

COZ041-046-047-076>085-087-088-260600-
...PIKES PEAK/PALMER DIVIDE AND SOUTHERN FOOTHILLS...

CITY           SKY/WX    TMP DP  RH WIND       PRES   REMARKS
COLO. SPRINGS  PTCLDY    37  24  59 N7        30.24R
A. F. ACADEMY  PTCLDY    28  23  79 N13       30.24S WCI  18
ELLICOTT       PTCLDY   N/A N/A N/A CALM      30.23R
FALCON         PTCLDY    35  23  62 NW8       30.26R WCI  28
FORT CARSON    PTCLDY    35  25  66 NW12      30.22R WCI  27
LIMON          PTCLDY    27  23  85 NW6       30.20S WCI  20
MONUMENT HILL  PTCLDY    36  23  60 W8        30.24S
TRINIDAD       PTCLDY    38  25  59 SW14      30.24R
$$

COZ042>045-048>051-090-091-260600-
...NORTHEAST COLORADO...

CITY           SKY/WX    TMP DP  RH WIND       PRES   REMARKS
GREELEY ARPT   PTCLDY    30  21  69 CALM      30.17S
AKRON          CLEAR     39  29  67 W14       30.15S
BURLINGTON     CLEAR     35  29  78 W9        30.15R WCI  28
WRAY           CLEAR     37  32  81 W10       30.11S
STERLING       CLEAR     45  34  65 NW16      30.12F
HOLYOKE        CLEAR     43  32  65 W14G20    30.10S
FORT MORGAN    CLEAR     34  28  79 W8        30.18S WCI  27
$$

COZ086-089-092>099-260600-
...SOUTHEAST COLORADO...

CITY           SKY/WX    TMP DP  RH WIND       PRES   REMARKS
PUEBLO         PTCLDY    32  28  85 CALM      30.20R
LA JUNTA       CLEAR     39  30  70 W12       30.19R
LAMAR          CLEAR     32  28  85 SW6       30.17R WCI  26
SPRINGFIELD      N/A     34  27  75 VRB3      30.19R
$$



USA.gov is the U.S. government's official web portal to all federal, state and local government web resources and services.